Location: Janeiro
(34.9957°N, 76.7652°W)
Time: 02:27:42
(UTC+00:00)

Cosmos 1603 - Pass Details

Date: 14 December 2019
Orbit: 830 x 860 km, 71.0° (Epoch: 26 January)

Event Time Altitude Azimuth Distance (km) Brightness Sun altitude
Rises 23:17:04 0° 197° (SSW) 3,394 7.4 -16.0°
Reaches altitude 10° 23:19:29 10° 197° (SSW) 2,466 6.6 -16.5°
Maximum altitude 23:25:10 83° 110° (ESE) 865 3.6 -17.6°
Enters shadow 23:29:50 16° 23° (NNE) 2,093 5.4 -18.5°
